ED1ZAI-13 Weather Reports


time (UTC)temp
C
wind
direction
speed
KPH
gust
KPH
rain 1hr
cm
rain 24hr
cm
rain mn
cm
humidity
%
barometer
mb
20260510183250 12 83 0.0 3.2 0.10 0.66 0.66 79 1009.9
20260510182250 8 353 3.2 8.0 0.05 0.61 0.61 84 1010.2
20260510181250 8 92 1.6 4.8 0.00 0.56 0.56 82 1010.3
20260510180250 9 268 0.0 4.8 0.00 0.56 0.56 83 1010.1
20260510175250 9 215 0.0 4.8 0.00 0.56 0.56 82 1009.9
20260510174249 9 225 0.0 8.0 0.00 0.56 0.56 83 1010.0
20260510173249 8 233 3.2 8.0 0.05 0.56 0.56 83 1009.7
20260510172249 8 98 6.4 12.9 0.05 0.56 0.56 84 1009.6
20260510171248 8 222 6.4 11.3 0.05 0.56 0.56 81 1009.4
20260510170946 9 131 4.8 11.3 0.10 0.56 0.56 80 1009.3
20260510165946 10 210 4.8 9.7 0.15 0.56 0.56 80 1009.5
20260510164945 9 209 3.2 9.7 0.15 0.56 0.56 85 1009.7
20260510163945 7 96 6.4 14.5 0.10 0.51 0.51 88 1010.2
20260510162944 8 214 9.7 16.1 0.10 0.51 0.51 86 1010.5
20260510161946 8 209 4.8 9.7 0.10 0.61 0.51 83 1010.0
20260510160945 9 86 3.2 6.4 0.10 0.84 0.51 81 1009.4
20260510155945 8 218 3.2 6.4 0.05 0.79 0.46 82 1009.8
20260510154945 10 205 1.6 4.8 0.00 0.76 0.41 77 1009.6
20260510153945 11 222 0.0 1.6 0.00 0.76 0.41 71 1009.6
20260510152944 11 213 1.6 3.2 0.00 0.76 0.41 69 1009.4
20260510151946 12 221 0.0 3.2 0.00 0.76 0.41 68 1009.4
20260510150946 12 211 0.0 6.4 0.00 0.76 0.41 67 1009.5
20260510145946 9 217 1.6 4.8 0.00 0.76 0.41 79 1010.1
20260510144945 9 219 1.6 8.0 0.00 0.76 0.41 77 1010.0
20260510143945 10 285 1.6 6.4 0.00 0.76 0.41 77 1009.9
20260510142945 10 265 4.8 9.7 0.00 0.76 0.41 79 1010.2
20260510141946 9 297 4.8 9.7 0.00 0.76 0.41 78 1010.2
20260510140946 9 272 6.4 11.3 0.00 0.76 0.41 78 1010.5
20260510135946 10 249 3.2 6.4 0.00 0.76 0.41 80 1010.4
20260510134945 8 300 6.4 11.3 0.00 0.76 0.41 81 1010.7
20260510133945 8 217 3.2 8.0 0.20 0.76 0.41 80 1010.7
20260510132945 8 244 4.8 11.3 0.20 0.76 0.41 79 1010.5
20260510131945 9 265 6.4 12.9 0.20 0.76 0.41 82 1010.4
20260510130946 9 266 6.4 11.3 0.20 0.76 0.41 82 1010.3
20260510125945 10 240 4.8 8.0 0.20 0.76 0.41 84 1010.3
20260510124945 9 163 6.4 14.5 0.20 0.76 0.41 88 1010.9
20260510123944 8 229 6.4 14.5 0.10 0.36 0.30 89 1011.1
20260510122946 8 214 11.3 14.5 0.00 0.56 0.20 87 1010.7
20260510121946 8 210 9.7 16.1 0.00 0.56 0.20 78 1010.0
20260510120945 10 231 8.0 11.3 0.00 0.56 0.20 70 1009.7
20260510115945 10 89 8.0 11.3 0.00 0.56 0.20 69 1009.5
20260510114945 11 109 8.0 12.9 0.00 0.56 0.20 64 1009.5
20260510113946 12 91 4.8 11.3 0.00 0.56 0.20 62 1009.4
20260510112946 12 230 6.4 11.3 0.00 0.56 0.20 61 1009.4
20260510111945 12 234 4.8 12.9 0.00 0.56 0.20 61 1009.7
20260510110945 11 84 6.4 14.5 0.00 0.56 0.20 62 1009.7
20260510105945 13 171 3.2 6.4 0.00 0.56 0.20 60 1009.8
20260510104945 12 272 4.8 8.0 0.00 0.56 0.20 63 1010.0
20260510103945 12 101 8.0 11.3 0.00 0.56 0.20 61 1010.1
20260510102945 11 93 8.0 11.3 0.00 0.56 0.20 67 1010.2
20260510101946 11 229 4.8 8.0 0.00 0.56 0.20 61 1010.2
20260510100946 11 146 6.4 11.3 0.00 0.56 0.20 62 1010.2
20260510095946 11 99 8.0 14.5 0.00 0.56 0.20 64 1010.3
20260510094945 11 222 8.0 12.9 0.00 0.56 0.20 64 1010.4
20260510093945 11 154 6.4 9.7 0.00 0.56 0.20 67 1010.6
20260510092945 10 222 4.8 9.7 0.00 0.56 0.20 72 1010.6
20260510091946 10 220 3.2 6.4 0.00 0.56 0.20 74 1010.6
20260510090946 10 209 4.8 11.3 0.00 0.56 0.20 77 1010.6
20260510085946 9 189 6.4 9.7 0.00 0.56 0.20 76 1010.7
20260510084946 9 208 4.8 9.7 0.00 0.56 0.20 79 1010.8
20260510083945 10 87 4.8 9.7 0.00 0.56 0.20 79 1010.9
20260510082945 10 216 3.2 6.4 0.00 0.56 0.20 79 1011.0
20260510081945 10 87 3.2 6.4 0.00 0.56 0.20 78 1010.9
20260510080944 9 218 3.2 6.4 0.00 0.56 0.20 81 1011.0
20260510075946 9 200 3.2 6.4 0.00 0.56 0.20 81 1011.0
20260510074946 9 119 3.2 6.4 0.00 0.56 0.20 81 1011.0
20260510073945 9 172 3.2 4.8 0.00 0.56 0.20 83 1010.9
20260510072945 8 101 3.2 4.8 0.00 0.56 0.20 83 1010.9
20260510071946 8 209 1.6 4.8 0.00 0.56 0.20 86 1011.0
20260510070945 8 230 1.6 4.8 0.05 0.56 0.20 87 1011.0
20260510065945 7 222 1.6 4.8 0.05 0.56 0.20 88 1011.1
20260510064945 7 222 1.6 4.8 0.05 0.56 0.20 88 1011.1
20260510063946 7 195 1.6 4.8 0.05 0.56 0.20 87 1010.8
20260510062945 7 222 1.6 3.2 0.05 0.56 0.20 88 1010.7
20260510061945 7 221 0.0 0.0 0.05 0.56 0.20 89 1010.7
20260510060944 7 222 1.6 6.4 0.00 0.51 0.15 89 1010.8
20260510055944 7 217 1.6 4.8 0.00 0.51 0.15 89 1010.7
20260510054943 7 226 1.6 6.4 0.00 0.51 0.15 90 1010.7
20260510053945 6 221 3.2 4.8 0.00 0.51 0.15 89 1010.5
20260510052944 7 216 1.6 4.8 0.00 0.51 0.15 89 1010.5
20260510051944 6 217 1.6 4.8 0.00 0.51 0.15 89 1010.5
20260510050945 6 224 3.2 4.8 0.00 0.51 0.15 89 1010.6
20260510045945 6 224 1.6 4.8 0.00 0.51 0.15 89 1010.6
20260510044945 6 224 1.6 4.8 0.00 0.51 0.15 88 1010.5
20260510043945 7 209 1.6 3.2 0.00 0.51 0.15 89 1010.6
20260510043448 7 209 1.6 3.2 0.00 0.51 0.15 89 1010.6
20260510042448 6 216 1.6 4.8 0.00 0.51 0.15 89 1010.6
20260510041448 6 226 1.6 3.2 0.00 0.51 0.15 90 1010.7
20260510040447 6 219 3.2 4.8 0.00 0.51 0.15 90 1010.7
20260510035447 6 217 3.2 4.8 0.00 0.51 0.15 89 1010.6
20260510034447 6 221 1.6 3.2 0.00 0.51 0.15 89 1010.6
20260510033447 6 215 3.2 4.8 0.00 0.51 0.15 89 1010.5
20260510032448 6 234 1.6 4.8 0.00 0.51 0.15 89 1010.5
20260510031448 7 214 1.6 4.8 0.00 0.51 0.15 88 1010.5
20260510030448 7 217 0.0 0.0 0.00 0.51 0.15 86 1010.5
20260510025447 7 216 0.0 0.0 0.00 0.51 0.15 86 1010.4
20260510024447 7 216 0.0 0.0 0.00 0.51 0.15 87 1010.6
20260510023447 7 217 0.0 0.0 0.00 0.51 0.15 88 1010.7
20260510022448 7 215 0.0 1.6 0.00 0.51 0.15 89 1010.8
20260510021448 7 215 0.0 1.6 0.00 0.51 0.15 89 1010.7
20260510020448 7 217 0.0 3.2 0.00 0.51 0.15 89 1010.8
20260510015448 7 220 1.6 4.8 0.00 0.51 0.15 91 1010.9
20260510014447 7 221 1.6 4.8 0.00 0.51 0.15 90 1011.0
20260510013447 7 218 0.0 1.6 0.00 0.51 0.15 90 1011.0
20260510012447 6 238 4.8 8.0 0.00 0.51 0.15 91 1011.2
20260510011448 7 213 3.2 4.8 0.00 0.51 0.15 90 1011.2
20260510010448 7 219 3.2 6.4 0.00 0.51 0.15 90 1011.3
20260510005448 7 218 3.2 4.8 0.00 0.51 0.15 89 1011.2
20260510004448 7 222 3.2 6.4 0.00 0.51 0.15 88 1011.2
20260510003447 7 220 1.6 4.8 0.00 0.51 0.15 86 1011.0
20260510002447 7 200 1.6 8.0 0.05 0.51 0.15 86 1010.9
20260510001447 7 256 1.6 6.4 0.10 0.51 0.15 86 1010.9
20260510000448 7 233 3.2 6.4 0.15 0.51 0.15 88 1011.1
20260509235448 7 218 4.8 11.3 0.15 0.51 0.15 88 1011.4
20260509234448 8 226 1.6 4.8 0.15 0.51 0.15 86 1011.4
20260509233447 8 220 1.6 4.8 0.15 0.51 0.15 87 1011.2
20260509232447 8 236 1.6 6.4 0.10 0.46 0.10 87 1011.4
20260509231447 8 274 3.2 6.4 0.10 0.46 0.10 88 1011.2
20260509230447 8 238 8.0 12.9 0.05 0.41 0.05 89 1011.4
20260509225447 9 93 8.0 12.9 0.00 0.36 0.00 84 1010.6
20260509224447 10 180 3.2 6.4 0.00 0.36 0.00 80 1010.4
20260509223447 10 83 0.0 4.8 0.00 0.36 0.00 78 1010.6
20260509222448 10 59 1.6 4.8 0.00 0.36 0.00 77 1010.4
20260509221448 10 152 4.8 11.3 0.00 0.36 0.00 81 1010.5
20260509220448 10 145 3.2 8.0 0.00 0.36 0.36 80 1010.4
20260509210448 10 159 3.2 6.4 0.00 0.36 0.36 79 1010.5
20260509205448 10 159 3.2 6.4 0.00 0.36 0.36 79 1010.5
20260509204448 11 160 0.0 4.8 0.00 0.36 0.36 79 1010.5
20260509203447 11 115 0.0 3.2 0.00 0.36 0.36 81 1010.5
20260509202447 10 141 3.2 6.4 0.00 0.36 0.36 81 1010.5
20260509201448 10 97 4.8 8.0 0.00 0.36 0.36 80 1010.2
20260509200447 11 143 4.8 6.4 0.00 0.36 0.36 80 1010.2
20260509195447 11 119 3.2 4.8 0.00 0.36 0.36 79 1010.0
20260509194447 11 111 4.8 8.0 0.00 0.36 0.36 80 1010.0
20260509193448 11 100 6.4 9.7 0.00 0.36 0.36 79 1009.9
20260509192448 11 95 4.8 9.7 0.00 0.36 0.36 75 1009.5
20260509191448 11 109 1.6 4.8 0.00 0.36 0.36 75 1009.6
20260509190448 11 122 1.6 6.4 0.00 0.36 0.36 76 1009.9
20260509185447 11 208 0.0 4.8 0.00 0.36 0.36 76 1009.7
20260509184447 11 99 1.6 4.8 0.00 0.36 0.36 75 1009.5